FW4141 Weather Reports


time (UTC)temp
C
wind
direction
speed
KPH
gust
KPH
rain 1hr
cm
rain 24hr
cm
rain mn
cm
humidity
%
barometer
mb
20260905044037 15 321 3.2 9.7 0.00 0.28 0.00 79 1006.0
20260905043036 15 349 6.4 14.5 0.00 0.28 0.00 79 1005.9
20260905042030 15 312 4.8 11.3 0.00 0.28 0.00 80 1005.9
20260905041027 15 20 6.4 14.5 0.00 0.28 0.00 80 1005.8
20260905040025 16 272 6.4 11.3 0.00 0.28 0.00 80 1005.7
20260905035020 16 348 4.8 11.3 0.00 0.28 0.00 79 1005.5
20260905034018 16 299 8.0 12.9 0.00 0.28 0.00 79 1005.4
20260905033115 16 242 4.8 11.3 0.00 0.28 0.00 78 1005.2
20260905032110 16 324 4.8 8.0 0.00 0.28 0.00 78 1005.0
20260905031105 16 299 8.0 16.1 0.00 0.28 0.00 77 1004.9
20260905025058 16 332 6.4 12.9 0.00 0.28 0.00 79 1004.6
20260905024059 16 335 8.0 12.9 0.00 0.28 0.00 78 1004.7
20260905023054 16 333 6.4 12.9 0.00 0.28 0.00 78 1004.6
20260905022048 16 339 8.0 12.9 0.00 0.28 0.00 78 1004.5
20260905021045 16 283 8.0 12.9 0.00 0.28 0.00 78 1004.1
20260905020040 16 343 8.0 17.7 0.00 0.28 0.00 78 1004.3
20260905015036 17 319 8.0 16.1 0.00 0.28 0.00 78 1004.3
20260905014056 17 7 4.8 12.9 0.00 0.28 0.00 78 1004.2
20260905013031 17 308 6.4 12.9 0.00 0.28 0.00 78 1004.0
20260905012037 17 350 6.4 14.5 0.00 0.28 0.00 79 1004.0
20260905011025 17 40 8.0 17.7 0.00 0.28 0.00 79 1003.9
20260905010019 17 301 8.0 12.9 0.00 0.28 0.00 80 1003.9
20260905005115 17 323 8.0 12.9 0.00 0.28 0.00 80 1004.0
20260905004111 17 273 6.4 8.0 0.00 0.28 0.00 81 1004.0
20260905003110 17 291 6.4 12.9 0.00 0.28 0.00 83 1003.9
20260905002126 17 309 6.4 12.9 0.00 0.28 0.00 84 1003.8
20260905001103 16 321 8.0 14.5 0.00 0.28 0.00 85 1003.2
20260905000057 16 344 6.4 8.0 0.00 0.28 0.00 85 1003.1
20260904235053 16 289 4.8 11.3 0.00 0.28 0.00 85 1003.5
20260904234110 16 321 4.8 12.9 0.00 0.28 0.00 85 1003.5
20260904233106 16 282 6.4 12.9 0.00 0.28 0.00 85 1003.5
20260904232042 16 358 4.8 12.9 0.00 0.28 0.00 85 1003.5
20260904231059 16 302 4.8 12.9 0.00 0.28 0.00 85 1003.3
20260904230035 16 41 6.4 11.3 0.00 0.28 0.00 86 1003.1
20260904225031 16 336 6.4 11.3 0.00 0.28 0.00 86 1002.9
20260904224031 16 298 6.4 12.9 0.00 0.28 0.00 86 1002.5
20260904223054 16 355 6.4 19.3 0.00 0.28 0.00 86 1002.6
20260904222027 16 39 6.4 11.3 0.00 0.28 0.00 86 1002.8
20260904221033 16 284 8.0 17.7 0.00 0.28 0.00 86 1002.7
20260904220113 16 299 6.4 12.9 0.00 0.28 0.00 86 1002.5
20260904215113 16 299 8.0 12.9 0.00 0.28 0.28 86 1002.5
20260904214141 16 290 6.4 12.9 0.00 0.28 0.28 85 1002.3
20260904213204 16 350 8.0 14.5 0.00 0.28 0.28 84 1002.1
20260904212112 16 295 6.4 12.9 0.00 0.28 0.28 82 1001.7
20260904211149 16 290 6.4 19.3 0.00 0.28 0.28 80 1001.7
20260904210111 17 331 9.7 14.5 0.00 0.28 0.28 79 1001.8
20260904205056 17 335 11.3 20.9 0.00 0.28 0.28 74 1001.6
20260904204123 17 308 8.0 17.7 0.00 0.28 0.28 72 1001.1
20260904203049 17 328 9.7 25.7 0.00 0.28 0.28 71 1001.0
20260904202050 17 331 4.8 12.9 0.00 0.28 0.28 71 1000.9
20260904201050 17 309 3.2 9.7 0.00 0.28 0.28 72 1000.9
20260904200031 17 306 4.8 11.3 0.00 0.28 0.28 74 1000.9
20260904195028 18 252 8.0 12.9 0.00 0.28 0.28 75 1001.2
20260904194040 18 304 8.0 12.9 0.00 0.28 0.28 80 1001.4
20260904193027 18 268 6.4 14.5 0.00 0.28 0.28 82 1001.2
20260904192117 18 345 6.4 12.9 0.00 0.28 0.28 83 1001.0
20260904191125 18 23 6.4 17.7 0.03 0.28 0.28 86 1001.1
20260904190121 18 352 4.8 8.0 0.03 0.28 0.28 87 1001.2
20260904185103 18 295 4.8 8.0 0.03 0.28 0.28 89 1001.4
20260904184138 18 308 4.8 9.7 0.03 0.28 0.28 89 1001.2
20260904183100 18 4 8.0 20.9 0.03 0.28 0.28 89 1001.1
20260904182103 18 255 4.8 14.5 0.03 0.28 0.28 89 1001.0
20260904181049 19 324 4.8 6.4 0.10 0.23 0.23 87 1000.8
20260904175044 19 291 3.2 9.7 0.23 0.23 0.23 86 1000.5
20260904174058 20 348 4.8 12.9 0.23 0.23 0.23 84 1000.2
20260904173039 20 297 8.0 16.1 0.23 0.23 0.23 83 999.8
20260904172057 21 325 8.0 22.5 0.23 0.23 0.23 79 999.6
20260904171030 24 337 11.3 22.5 0.15 0.15 0.15 63 999.3
20260904170053 25 322 8.0 14.5 0.00 0.00 0.00 56 997.2
20260904165026 25 9 6.4 12.9 0.00 0.00 0.00 56 997.6
20260904164023 25 345 8.0 17.7 0.00 0.00 0.00 55 997.9
20260904163148 25 254 6.4 17.7 0.00 0.00 0.00 55 998.0
20260904162115 25 9 11.3 19.3 0.00 0.00 0.00 55 998.2
20260904161128 25 9 12.9 22.5 0.00 0.00 0.00 55 998.3
20260904160108 26 312 9.7 16.1 0.00 0.00 0.00 54 998.5
20260904155127 26 307 9.7 20.9 0.00 0.00 0.00 54 998.6
20260904154124 26 314 11.3 25.7 0.00 0.00 0.00 54 998.5
20260904153054 25 301 9.7 17.7 0.00 0.00 0.00 55 998.5
20260904152111 25 13 8.0 19.3 0.00 0.00 0.00 55 998.7
20260904151135 25 355 8.0 12.9 0.00 0.00 0.00 55 998.8
20260904150045 25 266 6.4 12.9 0.00 0.00 0.00 55 998.9
20260904145055 25 249 6.4 12.9 0.00 0.00 0.00 55 999.1
20260904144058 26 345 9.7 19.3 0.00 0.00 0.00 54 999.2
20260904143144 26 330 8.0 16.1 0.00 0.00 0.00 55 999.3
20260904142128 25 295 9.7 16.1 0.00 0.00 0.00 54 999.3
20260904141051 26 281 8.0 17.7 0.00 0.00 0.00 53 999.4
20260904140029 26 311 8.0 14.5 0.00 0.00 0.00 52 999.7
20260904135017 26 269 11.3 22.5 0.00 0.00 0.00 52 999.9
20260904134114 26 338 9.7 22.5 0.00 0.00 0.00 52 1000.1
20260904133112 27 219 9.7 17.7 0.00 0.00 0.00 52 1000.2
20260904132112 26 312 8.0 14.5 0.00 0.00 0.00 54 1000.3
20260904131104 25 291 9.7 14.5 0.00 0.00 0.00 54 1000.5
20260904130121 26 216 8.0 14.5 0.00 0.00 0.00 54 1000.7
20260904125057 26 350 8.0 19.3 0.00 0.00 0.00 56 1001.1
20260904124117 25 17 6.4 12.9 0.00 0.00 0.00 59 1001.3
20260904123049 25 306 9.7 19.3 0.00 0.00 0.00 60 1001.4
20260904122047 25 50 9.7 19.3 0.00 0.00 0.00 60 1001.6
20260904121111 24 265 9.7 17.7 0.00 0.00 0.00 62 1001.9
20260904120044 23 270 8.0 17.7 0.00 0.00 0.00 64 1002.3
20260904115044 23 3 6.4 14.5 0.00 0.00 0.00 64 1002.4
20260904114030 23 207 6.4 12.9 0.00 0.00 0.00 65 1002.5
20260904113030 22 344 6.4 14.5 0.00 0.00 0.00 65 1002.9
20260904112023 22 347 11.3 22.5 0.00 0.00 0.00 63 1003.0
20260904111020 23 289 8.0 17.7 0.00 0.00 0.00 61 1003.1
20260904110016 23 285 8.0 16.1 0.00 0.00 0.00 66 1003.3
20260904105113 21 296 6.4 12.9 0.00 0.00 0.00 70 1003.5
20260904104111 22 301 11.3 20.9 0.00 0.00 0.00 63 1003.5
20260904103104 23 304 9.7 17.7 0.00 0.00 0.00 61 1003.3
20260904102101 22 269 6.4 11.3 0.00 0.00 0.00 61 1003.6
20260904101058 22 275 4.8 11.3 0.00 0.00 0.00 61 1003.7
20260904100055 22 16 8.0 16.1 0.00 0.00 0.00 60 1004.2
20260904095100 22 283 4.8 12.9 0.00 0.00 0.00 60 1004.1
20260904094047 22 279 4.8 12.9 0.00 0.00 0.00 59 1004.4
20260904093044 23 240 9.7 17.7 0.00 0.00 0.00 56 1004.5
20260904092040 23 21 3.2 8.0 0.00 0.00 0.00 56 1004.6
20260904091038 24 175 4.8 12.9 0.00 0.00 0.00 55 1004.8
20260904090034 23 25 4.8 12.9 0.00 0.00 0.00 57 1004.9
20260904085029 23 322 8.0 20.9 0.00 0.00 0.00 56 1005.2
20260904084027 23 142 4.8 17.7 0.00 0.00 0.00 58 1005.2
20260904083025 23 102 6.4 16.1 0.00 0.00 0.00 60 1005.5
20260904082102 22 353 8.0 12.9 0.00 0.00 0.00 60 1005.6
20260904081027 22 282 6.4 12.9 0.00 0.00 0.00 62 1005.6
20260904080118 22 332 4.8 9.7 0.00 0.00 0.00 67 1005.5
20260904075112 21 244 3.2 9.7 0.00 0.00 0.00 68 1005.6
20260904074106 21 329 4.8 6.4 0.00 0.00 0.00 70 1005.7
20260904073102 21 336 4.8 9.7 0.00 0.00 0.00 70 1005.9
20260904072101 21 285 3.2 6.4 0.00 0.00 0.00 71 1005.8
20260904071054 20 343 1.6 6.4 0.00 0.00 0.00 72 1006.0
20260904070053 20 0 3.2 8.0 0.00 0.00 0.00 72 1005.9
20260904065047 20 5 4.8 6.4 0.00 0.00 0.00 72 1006.0
20260904064043 20 19 3.2 8.0 0.00 0.00 0.00 73 1006.3
20260904063040 19 18 3.2 6.4 0.00 0.00 0.00 74 1006.5
20260904062057 18 253 1.6 6.4 0.00 0.00 0.00 74 1006.7
20260904061033 18 230 1.6 6.4 0.00 0.00 0.00 75 1006.7
20260904060050 18 278 1.6 6.4 0.00 0.00 0.00 75 1006.4
20260904055028 18 10 3.2 6.4 0.00 0.00 0.00 75 1006.3
20260904054023 18 235 4.8 9.7 0.00 0.00 0.00 75 1006.5
20260904053020 18 343 3.2 11.3 0.00 0.00 0.00 76 1006.6
20260904052018 18 259 3.2 4.8 0.00 0.00 0.00 76 1006.7
20260904051116 18 278 4.8 11.3 0.00 0.00 0.00 76 1006.9
20260904050109 17 24 3.2 6.4 0.00 0.00 0.00 77 1006.8
20260904045108 17 200 3.2 4.8 0.00 0.00 0.00 77 1006.7